This is the latest recevied weather packets stored in our database for station/object K3MV-13. If no packets are shown the sender has not sent any weather packets the latest 10 day(s).
| Time | Temp. | Humidity | Pressure | Rain* | Wind** | Luminosity | Snow |
|---|---|---|---|---|---|---|---|
| 1777591574 | 6.67° C | 74% | 1013.3 hPa | 0 mm | - | 27 W/m² | - |
| 1777591270 | 7.22° C | 72% | 1013.4 hPa | 0 mm | - | 29 W/m² | - |
| 1777590966 | 7.22° C | 72% | 1013.3 hPa | 0 mm | - | 36 W/m² | - |
| 1777590661 | 7.78° C | 71% | 1013.3 hPa | 0 mm | - | 56 W/m² | - |
| 1777590358 | 7.22° C | 72% | 1013.5 hPa | 0 mm | - | 62 W/m² | - |
| 1777590055 | 7.22° C | 72% | 1013.4 hPa | 0 mm | - | 54 W/m² | - |
| 1777589751 | 7.78° C | 70% | 1013.3 hPa | 0 mm | - | 35 W/m² | - |
| 1777589450 | 8.33° C | 69% | 1013.4 hPa | 0 mm | - | 45 W/m² | - |
| 1777589146 | 7.78° C | 72% | 1013.6 hPa | 0 mm | - | 72 W/m² | - |
| 1777588842 | 7.78° C | 71% | 1013.7 hPa | 0 mm | - | 81 W/m² | - |
| 1777588538 | 7.78° C | 71% | 1013.4 hPa | 0 mm | - | 148 W/m² | - |
| 1777588234 | 7.78° C | 71% | 1013.7 hPa | 0 mm | - | 75 W/m² | - |
| 1777587929 | 8.33° C | 69% | 1013.5 hPa | 0 mm | - | 121 W/m² | - |
| 1777587625 | 8.33° C | 72% | 1013.4 hPa | 0 mm | - | 186 W/m² | - |
| 1777587320 | 8.33° C | 71% | 1013.4 hPa | 0 mm | - | 183 W/m² | - |
| 1777587015 | 8.33° C | 72% | 1013.4 hPa | 0 mm | - | 168 W/m² | - |
| 1777586711 | 8.33° C | 76% | 1013.4 hPa | 0 mm | - | 168 W/m² | - |
| 1777586408 | 6.67° C | 77% | 1013.4 hPa | 0 mm | - | 307 W/m² | - |
| 1777586107 | 6.67° C | 77% | 1013.4 hPa | 0 mm | - | 130 W/m² | - |
| 1777585806 | 6.67° C | 79% | 1013.4 hPa | 0 mm | - | 81 W/m² | - |
| 1777585505 | 6.67° C | 78% | 1013.6 hPa | 0 mm | - | 66 W/m² | - |
| 1777585201 | 6.67° C | 78% | 1013.6 hPa | 0 mm | - | 52 W/m² | - |
| 1777584897 | 6.67° C | 78% | 1013.5 hPa | 0 mm | - | 51 W/m² | - |
| 1777584595 | 6.67° C | 79% | 1013.3 hPa | 0 mm | - | 66 W/m² | - |
| 1777584291 | 6.67° C | 79% | 1013.1 hPa | 0 mm | - | 59 W/m² | - |
* Rain latest hour (hover to see other rain measurements)
** Current wind speed in m/s (hover to see current wind gust speed)